Simultaneous Nadir Overpasses (SNOs) Predictions

Prediction of SNOs between GOES-14 and NOAA-20 Satellite Orbit:

Table of predicted SNOs for the next 14.0 days since TLE Epoch: 4/9/2022
Index Date Time (GOES-14) GOES-14 Lat,Lon NOAA-20 Lat,Lon Distance(km) Time Diff (sec)
1 04/09/2022 20:30:12 -0.12,-104.48 -0.44,-105.80 150.65 80
2 04/10/2022 20:08:49 -0.13,-104.47 0.60,-101.27 364.64 80
3 04/12/2022 08:30:37 0.12,-104.48 0.60,-106.53 234.58 80
4 04/13/2022 08:14:34 0.13,-104.49 -0.44,-102.01 282.65 80
5 04/14/2022 20:36:31 -0.12,-104.49 -0.73,-107.32 321.78 80
6 04/15/2022 20:15:07 -0.13,-104.48 0.26,-102.78 193.61 80
7 04/17/2022 08:36:55 0.12,-104.46 0.94,-108.05 408.96 80
8 04/18/2022 08:20:51 0.12,-104.47 -0.11,-103.52 108.08 80
9 04/19/2022 20:42:49 -0.11,-104.49 -1.05,-108.83 493.78 80
10 04/20/2022 20:21:24 -0.11,-104.48 -0.05,-104.29 21.30 80
